Regional Weather Roundup
Issued by NWS

Home | Current Version | Previous Version | Text Only | Print | Product List | Glossary Off
Versions: 1 2 3 4 5 6 7 8 9 10 11 12 13 14 15 16 17 18 19 20 21 22 23 24 25 26 27 28 29 30 31 32 33 34 35 36 37 38 39 40 41 42 43 44 45 46 47 48 49 50

000
ASUS43 KDMX 180206
RWRIA

WEATHER ROUNDUP FOR IOWA
NATIONAL WEATHER SERVICE DES MOINES IA
800 PM CST SAT FEB 17 2018

NOTE: "FAIR" INDICATES FEW OR NO CLOUDS BELOW 12,000 FEET WITH NO
SIGNIFICANT WEATHER AND/OR OBSTRUCTIONS TO VISIBILITY.

* - THESE STATIONS ARE NOT NWS STATIONS...THUS NOT UNDER NWS
QUALITY CONTROL.  THEY ALSO DO NOT REPORT WEATHER SUCH
AS PRECIPITATION OR FOG.

IAZ001>003-012>014-020>022-031>034-043>046-180300-
   NORTHWEST IOWA

CITY           SKY/WX    TMP DP  RH WIND       PRES   REMARKS
CARROLL *      CLEAR     30  27  86 NW5       30.13S WCI  25
CHEROKEE *     CLEAR     24  22  93 CALM      30.12F
DENISON *      CLEAR     28  27  93 CALM      30.15S
LE MARS *      CLEAR     23  21  93 CALM      30.12S
ORANGE CITY *  CLEAR     21  19  93 CALM      30.09F
SHELDON *      CLEAR     19  19 100 S6        30.07F WCI  11
SIOUX CITY     CLEAR     27  24  89 CALM      30.12F
SPENCER        CLEAR     21  18  88 SW8       30.09R WCI  11
STORM LAKE *   CLEAR     23  21  93 W10       30.11S WCI  12
$$

IAZ055>058-069>071-079>083-090>094-180300-
   SOUTHWEST IOWA

CITY           SKY/WX    TMP DP  RH WIND       PRES   REMARKS
ATLANTIC *     CLEAR     28  27  93 S5        30.15S WCI  23
AUDUBON *      CLEAR     28  23  80 CALM      30.14S
CLARINDA *     CLEAR     28  27  93 CALM      30.19S
COUNCIL BLFS * CLEAR     34  27  75 CALM      30.14S
CRESTON *      CLEAR     30  25  80 NW7       30.16R WCI  23
HARLAN  *      CLEAR     28  28 100 CALM      30.18S
LAMONI         CLEAR     34  23  64 NW8       30.15R WCI  27
RED OAK *      CLEAR     30  25  80 CALM      30.17R
SHENANDOAH *   CLEAR     30  27  86 N5        30.17S WCI  25
$$

IAZ047>049-059>061-072>074-084-180300-
   CENTRAL IOWA

CITY           SKY/WX    TMP DP  RH WIND       PRES   REMARKS
AMES           CLEAR     30  25  81 NW10      30.13S WCI  21
ANKENY *       CLEAR     30  27  86 NW6       30.15S WCI  24
BOONE *        CLEAR     30  27  86 W10G16    30.12S WCI  21
CHARITON *     CLEAR     34  27  75 NW5       30.15R WCI  30
DES MOINES     CLEAR     32  25  75 W3        30.14R
GRINNELL*      CLEAR     30  27  89 W7        30.14R WCI  23
KNOXVILLE *    CLEAR     32  25  74 NW7       30.13S WCI  26
MARSHALLTOWN   CLEAR     26  24  92 W3        30.12R
NEWTON *       CLEAR     30  28  93 W8        30.14R WCI  23
PELLA *        CLEAR     32  26  77 W7        30.16R WCI  26
PERRY *        FAIR      31  28  88 NW6       30.14R WCI  25
$$

IAZ004>006-015-016-023>025-035-036-180300-
   NORTH CENTRAL IOWA

CITY           SKY/WX    TMP DP  RH WIND       PRES   REMARKS
ALGONA *       CLEAR     25 N/A N/A W14       30.10R WCI  13
CLARION *      PTCLDY    25  25 100 W14       30.11R WCI  13
ESTHERVILLE    CLEAR     22  19  89 W10       30.08R WCI  11
FORT DODGE *   CLEAR     27  23  85 W12       30.12R WCI  17
MASON CITY     CLEAR     27  22  81 SW15      30.09R WCI  15
FOREST CITY *  FAIR      27  25  93 W9        30.08R WCI  17
WEBSTER CITY * CLEAR     23  21  93 W14       30.10S WCI  11
IOWA FALLS *   FAIR      24  22  91 W13       30.12R WCI  12
$$

IAZ007>011-017>019-026>030-037>042-050>054-066-180300-
   NORTHEAST IOWA

CITY           SKY/WX    TMP DP  RH WIND       PRES   REMARKS
CEDAR RAPIDS   FAIR      21  19  92 W8        30.12R WCI  11
CHARLES CITY * FAIR      25  25 100 W8        30.07R WCI  16
CLINTON *      CLOUDY    22  19  89 W10       30.12R WCI  11
DECORAH *      FAIR      25  23  93 VRB6      30.03S WCI  18
DUBUQUE        FAIR      25  21  85 W12       30.08R WCI  14
MONTICELLO *   FAIR      19  18  93 W3        30.10R
OELWEIN *      FAIR      23  23 100 W10       30.09R WCI  12
WATERLOO       FAIR      26  24  92 W8        30.11R WCI  18
$$

IAZ064-065-067-068-078-180300-
   EAST CENTRAL IOWA

CITY           SKY/WX    TMP DP  RH WIND       PRES   REMARKS
DAVENPORT      CLOUDY    25  20  81 W8        30.15R WCI  16
IOWA CITY      FAIR      24  20  84 CALM      30.15R
MT. PLEASANT * CLEAR     30  27  86 NW6       30.15R WCI  24
MUSCATINE *    FAIR      27  23  86 W7        30.15S WCI  19
QUAD CITIES    CLOUDY    29  24  82 W10       30.14R WCI  20
$$

IAZ062-063-075>077-085>089-095>099-180300-
   SOUTHEAST IOWA

CITY           SKY/WX    TMP DP  RH WIND       PRES   REMARKS
BURLINGTON     CLEAR     31  25  78 NW5       30.14R WCI  26
FAIRFIELD *    CLEAR     32  27  80 NW9       30.14R WCI  24
FORT MADISON * CLEAR     30  28  93 CALM      30.16R
KEOKUK *       CLEAR     32  28  86 CALM      30.16R
OSKALOOSA *    FAIR      26  24  93 W7        30.15R WCI  19
OTTUMWA        CLEAR     31  25  78 NW6       30.14R WCI  25
WASHINGTON *   CLEAR     27  28 100 NW3       30.15S
$$

ABBREVIATIONS USED IN REMARKS
   TC - TEMPERATURES IN CELSIUS
  WCI - WIND CHILL INDEX
   HX - HEAT INDEX
  VSB - VISIBILITY
$$





USA.gov is the U.S. government's official web portal to all federal, state and local government web resources and services.